Probability
32 16 3 0 0 0 0 0 0 0 0 0 0 0 0 0 0 0 0 0 0 6 23 26 42 45 42 45 45 45 48 48 48 45 42 42 42 45 55 55 48 45 55 52 55 55 61 61 58
23 10 0 0 0 0 0 0 0 0 0 0 0 0 0 0 0 0 0 6 10 16 23 35 48 45 52 45 42 48 52 48 42 39 39 42 42 42 45 45 39 42 42 52 52 48 45 48 52
13 3 0 0 0 0 0 0 0 0 0 0 0 0 0 0 0 0 6 10 13 10 16 48 55 45 42 45 45 45 42 39 35 35 45 45 42 42 42 35 39 45 39 39 42 45 42 45 48
3 0 0 0 0 0 0 0 0 0 0 0 0 0 0 0 3 0 10 16 10 10 19 39 55 52 48 45 42 32 35 35 39 35 32 39 42 39 35 35 42 35 35 35 32 42 42 42 48
0 0 0 0 0 0 0 0 0 0 0 0 0 0 0 3 3 13 13 13 10 10 23 32 45 42 45 45 45 35 35 35 35 32 32 26 26 32 32 32 32 26 32 26 26 29 35 32 39
0 0 0 0 0 0 0 0 0 0 0 0 0 0 0 6 10 10 13 13 13 16 26 35 45 39 42 42 42 39 42 35 32 29 29 23 23 26 23 29 26 23 26 23 26 29 16 29 45
0 0 0 0 0 0 0 0 0 0 0 0 0 0 0 6 10 10 10 13 10 13 16 23 32 32 35 42 42 32 32 32 32 29 23 19 19 26 26 26 32 26 23 23 26 29 23 29 29
0 0 0 0 0 0 0 0 0 0 0 3 0 0 0 3 10 6 6 6 6 16 16 19 19 23 19 26 35 32 35 32 26 29 29 29 29 26 23 19 26 23 23 19 19 26 23 29 29
0 0 0 0 0 0 0 0 0 0 0 3 0 0 0 10 3 6 3 3 10 13 10 13 16 10 6 13 32 29 32 26 23 16 23 19 3 0 10 16 19 23 26 23 13 16 13 10 13
0 0 0 0 0 0 0 0 0 0 3 3 3 6 10 10 13 10 10 6 3 10 10 10 6 6 3 6 10 10 10 6 3 0 0 0 0 0 3 3 23 23 23 16 16 13 10 3 3
0 0 0 0 0 0 0 0 0 0 0 3 3 6 16 13 6 10 13 6 3 3 6 6 3 3 3 0 3 3 0 0 0 0 0 0 0 0 0 0 0 0 3 0 3 0 3 3 3
0 0 0 0 0 0 0 0 0 0 0 0 3 3 16 13 10 10 10 6 6 6 6 10 3 3 0 0 0 0 0 0 0 0 0 0 0 0 0 0 0 0 0 0 0 0 0 0 3
0 0 0 0 0 0 0 0 0 0 0 0 3 13 16 13 10 6 6 6 6 6 6 3 0 0 0 0 0 0 0 0 0 0 0 0 0 0 0 0 0 0 0 0 0 0 0 0 0
0 0 0 0 0 0 0 0 0 0 0 3 3 13 16 16 10 6 6 6 6 6 6 6 6 0 0 0 0 0 0 0 0 0 0 0 0 0 0 0 0 0 0 0 0 0 0 0 0
0 0 0 0 0 0 0 0 0 0 3 3 3 10 13 16 10 6 6 6 6 6 6 6 6 6 0 0 0 0 0 0 0 0 0 0 0 0 0 0 0 0 0 0 0 0 0 0 0
0 0 0 0 0 0 0 0 0 0 3 3 3 3 6 6 3 6 10 3 6 6 3 6 6 6 6 0 0 0 0 0 0 0 0 0 0 0 0 0 0 0 0 0 0 0 0 0 0
0 0 0 0 0 0 0 0 0 0 3 3 3 3 3 3 3 6 10 6 3 3 3 6 6 6 6 0 0 0 0 0 0 0 0 0 0 0 0 0 0 0 0 0 0 0 0 0 0
0 0 0 0 0 0 0 0 0 0 3 3 3 3 3 3 3 3 10 10 3 3 3 6 6 6 6 0 0 0 0 0 0 0 0 0 0 0 0 0 0 0 0 0 0 0 0 0 0
0 0 0 0 0 0 0 0 0 0 0 0 0 3 3 3 3 3 6 3 3 6 6 6 6 6 3 0 0 0 0 0 0 0 0 0 0 0 0 0 0 0 0 0 0 0 0 0 0
0 0 0 0 0 0 0 0 0 0 0 0 0 0 3 3 3 3 0 0 3 3 6 6 6 6 3 0 0 0 0 0 0 0 0 0 0 0 0 0 0 0 0 0 0 0 0 0 0
0 0 0 0 0 0 0 0 0 0 0 0 0 0 0 0 0 3 0 0 0 3 3 6 3 3 3 0 0 0 0 0 0 0 0 0 0 0 0 0 0 0 0 0 0 0 0 0 0
0 0 0 0 0 0 0 0 0 0 0 0 0 0 0 0 0 0 0 0 0 0 0 3 3 3 3 0 0 3 0 0 0 0 0 0 0 0 0 0 0 0 0 0 0 0 0 0 0
0 0 0 0 0 0 0 0 0 0 0 0 0 0 0 0 0 0 0 0 0 0 0 3 3 3 3 0 0 0 0 0 0 0 0 0 0 0 0 0 0 0 0 0 0 0 0 0 0
0 0 0 0 0 0 0 0 0 0 0 0 0 0 0 0 0 0 0 0 0 0 0 3 3 3 3 0 0 0 0 0 0 0 0 0 0 0 0 0 0 0 0 0 0 0 0 0 0
0 0 0 0 0 0 0 0 0 0 0 0 0 0 0 0 0 0 0 0 0 0 0 3 3 3 3 0 0 0 0 0 0 0 0 0 0 0 0 0 0 0 0 0 0 0 0 0 0
0 0 0 0 0 0 0 0 0 0 0 0 0 0 0 0 0 0 0 0 0 0 0 0 3 3 3 3 0 3 0 0 0 0 0 0 0 0 0 0 0 0 0 0 0 0 0 0 0
0 0 0 0 0 0 0 0 0 0 0 0 0 0 0 0 0 0 0 0 0 0 0 0 3 3 3 3 3 3 0 0 0 0 0 0 0 0 0 0 0 0 0 0 0 0 0 0 0
0 0 0 0 0 0 0 0 0 0 0 0 0 0 0 0 0 0 0 0 0 0 0 0 3 3 3 3 3 3 3 0 0 0 0 0 0 0 0 0 0 0 0 0 0 0 0 0 0
0 0 0 0 0 0 0 0 0 0 0 0 0 0 0 0 0 0 0 0 0 0 0 0 0 3 3 3 3 3 3 0 0 0 0 0 0 0 0 0 0 0 0 0 0 0 0 0 0
0 0 0 0 0 0 0 0 0 0 0 0 0 0 0 0 0 0 0 0 0 0 0 0 0 3 3 3 3 3 3 3 0 0 0 0 0 0 0 0 0 0 0 0 0 0 0 0 0
Height
5852 5853 5854 5855 5856 5857 5857 5857 5857 5858 5858 5858 5858 5859 5859 5859 5860 5863 5861 5859 5860 5860 5860 5861 5861 5861 5860 5860 5860 5860 5860 5860 5860 5861 5861 5862 5862 5863 5863 5864 5864 5865 5865 5865 5866 5867 5867 5867 5867
5852 5852 5854 5855 5855 5855 5856 5857 5857 5857 5857 5857 5858 5858 5858 5858 5859 5859 5859 5859 5859 5860 5860 5860 5860 5860 5860 5860 5859 5859 5859 5859 5860 5860 5860 5861 5861 5862 5862 5862 5863 5863 5864 5864 5864 5865 5865 5865 5866
5851 5852 5854 5854 5854 5855 5856 5856 5856 5856 5857 5857 5857 5857 5857 5858 5858 5858 5858 5858 5859 5859 5859 5859 5859 5859 5859 5859 5859 5859 5859 5859 5859 5859 5859 5860 5860 5860 5861 5861 5861 5862 5862 5862 5863 5863 5863 5864 5864
5851 5852 5853 5853 5853 5854 5854 5855 5855 5855 5856 5856 5856 5856 5857 5857 5857 5857 5858 5858 5858 5858 5858 5858 5858 5858 5858 5857 5857 5857 5857 5858 5858 5858 5858 5858 5859 5859 5859 5859 5860 5860 5860 5861 5861 5861 5862 5862 5862
5850 5851 5852 5852 5852 5853 5853 5853 5854 5854 5854 5855 5855 5856 5856 5856 5856 5856 5857 5857 5857 5857 5857 5857 5857 5857 5856 5856 5856 5856 5856 5856 5856 5856 5857 5857 5857 5857 5857 5858 5858 5858 5858 5859 5859 5859 5860 5860 5860
5849 5850 5851 5851 5852 5852 5852 5852 5853 5853 5853 5854 5854 5854 5855 5855 5855 5855 5856 5856 5856 5856 5856 5856 5855 5855 5855 5855 5855 5855 5855 5855 5855 5855 5855 5855 5855 5855 5856 5856 5856 5856 5856 5857 5857 5857 5857 5857 5858
5849 5849 5849 5850 5850 5851 5851 5851 5852 5852 5852 5853 5853 5853 5853 5854 5854 5854 5854 5855 5854 5855 5855 5854 5854 5854 5854 5853 5853 5853 5853 5853 5853 5853 5853 5853 5853 5853 5854 5854 5854 5854 5854 5854 5855 5855 5855 5855 5855
5847 5849 5848 5849 5849 5850 5850 5850 5850 5851 5851 5852 5852 5852 5852 5853 5853 5853 5853 5853 5853 5853 5853 5853 5852 5852 5852 5852 5852 5851 5851 5851 5851 5851 5851 5851 5851 5851 5852 5852 5852 5852 5852 5852 5852 5852 5853 5853 5853
5846 5848 5847 5848 5848 5849 5849 5849 5849 5849 5850 5850 5850 5851 5851 5851 5851 5852 5852 5852 5851 5851 5851 5851 5851 5850 5850 5850 5850 5849 5849 5849 5849 5849 5849 5849 5849 5850 5850 5850 5850 5850 5850 5850 5850 5850 5850 5850 5850
5845 5845 5846 5847 5847 5847 5847 5847 5848 5848 5848 5848 5849 5849 5849 5850 5850 5850 5850 5850 5849 5849 5849 5849 5849 5848 5848 5848 5848 5847 5847 5847 5847 5847 5847 5847 5847 5847 5847 5847 5847 5847 5847 5847 5847 5847 5847 5847 5847
5843 5843 5844 5844 5844 5845 5845 5846 5846 5846 5846 5847 5847 5847 5848 5848 5848 5848 5848 5848 5848 5848 5847 5847 5847 5847 5846 5846 5845 5845 5845 5845 5845 5845 5845 5845 5845 5845 5845 5845 5845 5845 5845 5845 5844 5844 5844 5844 5844
5841 5841 5842 5842 5842 5843 5843 5843 5844 5844 5845 5845 5845 5846 5846 5846 5846 5846 5846 5846 5846 5846 5845 5845 5845 5845 5844 5844 5843 5843 5843 5843 5843 5843 5843 5843 5843 5843 5843 5843 5843 5843 5842 5842 5842 5841 5841 5841 5841
5839 5840 5840 5840 5840 5841 5841 5842 5842 5842 5842 5842 5843 5843 5844 5844 5844 5844 5844 5844 5844 5844 5844 5843 5843 5843 5842 5842 5841 5841 5841 5841 5841 5841 5841 5841 5841 5841 5840 5840 5840 5840 5840 5839 5839 5839 5838 5838 5838
5837 5837 5838 5838 5838 5838 5839 5840 5840 5841 5840 5840 5841 5841 5841 5841 5842 5842 5842 5842 5841 5841 5841 5841 5841 5840 5840 5840 5839 5839 5839 5839 5838 5838 5838 5838 5838 5838 5838 5838 5838 5837 5837 5837 5836 5836 5835 5835 5835
5834 5835 5836 5836 5836 5836 5837 5838 5838 5838 5838 5838 5838 5839 5839 5839 5840 5840 5840 5839 5839 5839 5839 5839 5838 5838 5838 5838 5837 5837 5837 5836 5836 5836 5836 5836 5836 5836 5835 5835 5835 5835 5834 5834 5833 5833 5832 5832 5831
5831 5832 5833 5834 5834 5834 5836 5836 5836 5835 5836 5836 5836 5836 5837 5837 5837 5837 5837 5837 5837 5837 5837 5836 5836 5836 5835 5835 5835 5835 5834 5834 5834 5834 5834 5834 5833 5833 5833 5832 5832 5832 5831 5831 5830 5830 5829 5829 5828
5828 5829 5830 5831 5831 5831 5832 5832 5833 5833 5833 5833 5833 5834 5834 5834 5835 5835 5835 5834 5834 5834 5834 5834 5834 5833 5833 5833 5833 5832 5832 5832 5832 5831 5831 5831 5831 5830 5830 5830 5829 5829 5828 5828 5827 5827 5826 5825 5825
5825 5826 5826 5827 5828 5828 5828 5829 5829 5829 5830 5830 5830 5831 5831 5831 5832 5832 5832 5832 5832 5832 5832 5831 5831 5831 5831 5831 5830 5830 5830 5829 5829 5829 5828 5828 5828 5827 5827 5827 5826 5826 5825 5825 5824 5823 5823 5822 5821
5821 5822 5823 5824 5824 5824 5825 5825 5826 5826 5826 5827 5827 5828 5828 5828 5829 5829 5829 5829 5829 5829 5829 5829 5829 5829 5828 5828 5828 5828 5827 5827 5827 5826 5826 5825 5825 5824 5824 5824 5823 5823 5822 5822 5821 5820 5819 5818 5818
5817 5818 5819 5820 5821 5821 5821 5822 5822 5823 5823 5824 5824 5825 5825 5825 5826 5826 5826 5826 5826 5826 5826 5826 5825 5825 5825 5825 5825 5825 5825 5824 5824 5823 5823 5822 5822 5821 5821 5821 5820 5820 5819 5818 5817 5817 5816 5815 5814
5814 5815 5816 5816 5817 5816 5818 5819 5819 5819 5820 5820 5821 5821 5822 5822 5822 5822 5823 5823 5823 5823 5823 5823 5822 5822 5822 5822 5821 5821 5821 5821 5821 5821 5820 5819 5819 5818 5818 5818 5817 5816 5816 5815 5814 5813 5812 5811 5811
5810 5811 5812 5812 5813 5813 5814 5814 5816 5815 5816 5816 5817 5817 5818 5818 5819 5819 5819 5819 5819 5819 5819 5819 5819 5819 5818 5818 5818 5818 5818 5818 5818 5817 5817 5817 5816 5815 5815 5814 5814 5813 5812 5811 5810 5809 5809 5808 5807
5806 5807 5807 5808 5808 5809 5809 5809 5812 5811 5812 5812 5813 5813 5814 5814 5815 5815 5815 5816 5816 5816 5816 5816 5816 5815 5815 5815 5815 5815 5815 5815 5814 5814 5814 5813 5813 5812 5811 5811 5810 5809 5808 5808 5807 5806 5805 5804 5803
5801 5802 5803 5803 5803 5804 5805 5805 5807 5807 5808 5808 5808 5808 5809 5810 5810 5811 5811 5811 5812 5812 5812 5812 5812 5812 5811 5811 5811 5811 5811 5811 5811 5810 5810 5809 5809 5808 5808 5807 5806 5805 5805 5804 5803 5802 5801 5800 5798
5796 5798 5798 5798 5798 5799 5800 5800 5802 5803 5803 5803 5803 5803 5804 5805 5806 5806 5807 5807 5807 5807 5808 5808 5808 5808 5807 5807 5807 5807 5807 5807 5807 5806 5806 5805 5805 5805 5804 5803 5802 5802 5801 5800 5799 5798 5797 5795 5794
5791 5793 5793 5793 5794 5795 5795 5795 5798 5798 5798 5798 5799 5799 5799 5800 5801 5802 5802 5802 5803 5803 5803 5803 5803 5803 5803 5803 5803 5803 5803 5803 5803 5802 5802 5801 5801 5800 5800 5799 5798 5797 5797 5796 5795 5794 5792 5791 5790
5786 5787 5788 5788 5788 5789 5790 5791 5793 5793 5793 5793 5794 5794 5794 5795 5796 5796 5797 5798 5798 5798 5798 5798 5798 5798 5799 5799 5799 5799 5798 5798 5798 5798 5797 5797 5796 5796 5795 5794 5793 5793 5792 5791 5790 5789 5788 5787 5785
5782 5782 5783 5783 5783 5783 5785 5787 5788 5788 5788 5789 5789 5789 5790 5790 5790 5791 5792 5792 5793 5793 5794 5794 5794 5794 5794 5794 5794 5794 5794 5793 5793 5793 5792 5792 5791 5791 5790 5789 5789 5788 5787 5786 5785 5784 5783 5782 5780
5777 5777 5777 5778 5778 5779 5780 5785 5784 5783 5783 5784 5784 5784 5784 5785 5786 5786 5787 5787 5788 5788 5788 5789 5789 5789 5789 5789 5789 5789 5789 5789 5788 5788 5787 5787 5786 5785 5785 5784 5784 5783 5782 5781 5780 5779 5778 5776 5775
5771 5772 5772 5773 5774 5774 5775 5780 5778 5779 5778 5779 5779 5779 5779 5780 5780 5781 5782 5783 5783 5783 5783 5783 5784 5784 5784 5784 5784 5784 5783 5783 5783 5782 5782 5781 5780 5780 5779 5779 5778 5777 5776 5775 5774 5773 5772 5771 5770
Wind_Speed
5 6 6 6 5 4 4 4 4 4 4 4 3 3 3 2 2 3 3 3 3 3 3 3 4 4 4 3 3 3 3 2 3 3 4 4 4 5 5 5 6 6 6 6 6 6 7 7 7
6 6 7 7 6 5 5 5 5 5 5 4 4 4 3 3 3 3 3 3 3 4 4 4 4 5 4 4 4 4 4 4 4 5 4 5 5 5 6 6 6 6 7 7 7 8 8 8 8
6 6 6 6 6 6 5 5 6 5 5 5 5 4 4 4 3 4 4 4 4 5 5 5 5 5 5 5 5 5 6 6 6 6 6 6 6 6 6 7 7 7 7 8 8 8 8 8 9
6 6 6 6 6 5 5 5 6 6 5 5 5 5 4 4 4 4 5 5 5 5 5 5 5 5 6 6 6 6 6 7 7 7 7 7 6 7 7 7 7 7 8 8 8 9 8 9 9
7 6 6 6 6 6 5 5 6 7 6 5 5 5 5 4 4 5 5 6 6 6 6 6 6 5 6 6 7 7 7 7 7 8 8 7 8 8 8 8 8 8 9 9 9 9 10 10 10
7 7 7 7 6 6 6 6 6 6 6 6 6 6 5 5 5 5 6 6 6 6 6 6 6 6 6 7 8 8 8 8 8 8 9 9 9 9 9 9 9 9 9 9 9 10 10 10 10
7 7 7 6 6 6 6 7 6 6 6 6 6 6 5 5 5 6 6 7 6 6 6 7 7 7 7 8 8 8 8 9 9 9 9 9 10 10 10 9 9 9 9 10 10 10 11 11 11
7 7 7 7 6 6 6 6 6 5 5 5 6 6 5 5 5 6 7 7 7 7 7 7 7 8 8 9 9 9 9 9 9 9 10 10 10 10 9 9 9 9 10 10 11 11 11 12 12
7 6 6 7 7 7 7 6 7 6 6 5 5 6 6 6 6 6 6 7 7 8 8 8 8 8 8 8 9 9 9 9 9 9 10 10 10 10 10 10 10 10 10 10 11 11 11 12 12
8 7 7 8 8 8 8 7 7 7 6 7 7 7 7 7 7 7 7 7 7 7 7 7 7 8 8 9 9 9 9 9 9 9 10 9 9 9 10 10 10 10 10 11 11 11 11 12 12
9 9 9 9 9 9 9 8 7 7 7 7 7 8 7 7 7 8 8 8 7 7 7 7 7 8 8 8 8 9 9 9 9 9 9 9 10 10 10 10 10 10 10 11 11 12 12 12 12
10 10 10 10 10 10 10 8 8 8 7 7 7 7 8 7 7 8 8 8 8 8 8 8 8 8 9 9 9 9 9 9 10 10 10 10 10 10 10 10 10 10 10 11 11 12 12 12 13
11 11 11 11 11 10 10 9 9 9 8 8 8 8 8 8 8 8 8 9 9 9 9 9 9 9 9 9 9 9 9 9 9 9 9 10 10 10 10 11 10 10 10 11 12 12 12 12 13
12 11 11 11 11 11 10 10 9 9 10 10 9 8 8 9 9 8 9 9 9 9 9 9 9 9 10 9 9 9 9 9 9 10 9 9 10 10 11 11 11 11 11 11 12 12 12 12 12
13 12 11 11 11 11 11 11 10 10 11 11 10 10 9 8 9 9 9 9 9 9 10 10 9 9 9 9 9 9 9 9 9 10 10 10 11 10 11 11 11 11 11 11 11 12 12 12 12
14 13 13 12 12 12 13 12 12 12 12 12 11 11 11 10 10 9 10 10 10 9 10 10 10 9 9 9 9 9 10 10 10 10 10 10 10 10 11 11 11 11 12 11 11 12 12 13 13
15 14 14 13 13 13 13 13 13 13 13 13 13 12 12 11 11 11 10 11 11 10 11 11 10 10 9 9 9 9 10 10 10 10 10 10 10 10 11 11 12 12 12 12 12 13 13 13 14
15 15 15 15 14 14 14 14 13 14 14 14 14 14 13 12 12 12 11 11 12 12 12 11 11 10 10 10 10 9 10 10 10 10 10 11 11 11 11 11 12 11 12 13 13 14 14 14 14
16 16 16 15 15 15 14 14 14 14 14 15 14 13 13 13 12 12 12 12 12 12 12 12 12 11 11 10 10 10 10 11 11 11 10 11 11 11 11 12 12 12 13 13 14 14 14 14 14
17 16 16 16 15 15 15 14 15 15 14 14 14 14 13 13 12 12 12 12 12 12 13 12 11 11 11 11 11 11 11 11 11 12 11 11 12 11 11 12 12 13 13 14 14 14 14 15 14
16 17 17 16 15 16 16 16 16 15 15 15 15 14 14 14 13 13 13 13 13 12 12 12 12 12 12 12 12 12 12 12 12 12 12 12 12 12 12 13 13 13 14 14 14 15 14 15 15
17 16 16 17 17 17 18 17 16 17 16 16 16 16 16 15 15 14 14 14 13 12 12 12 12 13 12 12 12 11 12 12 12 12 12 12 12 13 13 14 14 14 14 14 15 15 15 15 15
17 17 17 17 18 19 18 19 17 17 17 16 16 17 17 17 16 16 15 15 14 14 13 13 13 13 13 13 13 12 12 12 12 12 13 12 13 13 13 14 14 15 15 15 15 15 15 15 16
18 19 19 19 20 20 18 20 18 17 16 17 18 18 17 17 17 17 16 15 15 15 14 15 14 13 14 14 14 14 14 13 13 13 13 13 14 14 14 15 15 15 15 15 16 16 16 16 16
19 19 20 20 21 20 19 20 18 17 17 18 18 18 19 19 19 18 17 16 16 15 15 14 14 14 15 15 15 15 15 15 14 14 14 14 14 15 15 15 15 15 15 16 16 17 16 16 16
20 20 20 20 21 20 19 19 18 18 18 18 18 18 19 19 19 18 17 16 16 15 15 15 15 15 15 15 15 15 15 15 15 15 15 15 15 15 16 16 16 16 16 16 17 17 17 17 17
20 20 20 21 21 21 20 19 18 18 18 18 18 18 18 18 17 17 17 16 16 16 16 16 16 16 16 16 15 15 15 15 16 16 16 16 16 16 17 17 17 17 17 17 17 18 18 18 18
20 20 21 21 22 21 20 19 18 18 18 18 18 17 18 18 18 18 17 18 17 17 17 16 16 16 16 15 15 15 16 16 17 17 17 18 18 17 18 18 18 18 18 18 18 18 18 19 18
21 21 22 22 23 22 21 19 17 17 17 17 17 17 18 19 19 18 18 18 18 17 16 16 16 16 16 16 15 16 16 17 17 18 18 18 18 19 19 18 19 19 19 20 20 19 19 19 19
21 22 23 23 23 23 22 19 18 17 17 17 17 17 18 18 19 18 18 18 18 17 17 17 16 16 16 16 16 17 17 18 18 18 18 19 19 19 19 19 19 20 20 20 21 20 20 19 19
Wind_Direction
258 263 261 262 264 254 242 236 236 239 247 255 256 252 247 258 266 264 265 279 274 276 279 282 283 282 281 280 283 283 275 278 285 275 269 275 281 281 283 287 284 278 274 275 269 271 273 270 265
260 263 263 263 261 251 249 241 245 247 246 260 269 267 257 260 268 275 271 273 282 280 281 284 285 278 280 279 276 274 271 275 282 282 284 283 278 279 288 288 283 281 278 275 270 271 273 270 262
258 260 264 264 263 260 258 253 252 250 252 259 265 269 271 267 269 275 278 277 278 275 277 284 280 278 279 275 276 276 273 271 275 279 286 285 282 280 283 283 281 279 278 277 275 271 273 270 263
256 259 262 264 266 260 253 252 254 257 261 266 266 268 270 271 274 277 278 279 280 276 278 283 282 278 276 277 277 275 274 269 270 275 279 280 280 281 283 284 283 280 277 275 275 274 271 272 269
258 260 264 264 262 262 255 256 256 257 269 268 266 266 267 268 273 277 276 278 279 278 276 278 284 281 277 280 280 276 276 276 276 277 277 279 280 282 284 283 282 281 281 277 275 272 270 273 273
258 261 262 266 264 259 254 255 257 262 267 266 268 266 262 264 262 266 270 275 274 275 275 276 283 286 284 283 283 282 279 279 279 278 279 279 279 279 282 283 283 281 279 275 273 273 272 273 272
258 258 261 265 262 257 255 253 260 264 263 264 268 264 263 262 260 263 269 272 271 272 276 278 285 283 281 283 283 282 280 279 277 276 279 280 280 277 279 281 280 278 275 272 272 273 273 273 273
254 255 254 255 254 259 257 257 265 266 267 269 269 265 263 265 263 266 271 271 270 271 274 278 285 284 282 283 280 278 277 277 278 279 279 279 278 277 277 279 278 279 277 274 274 274 275 276 272
254 256 256 256 256 256 261 260 264 265 261 264 264 261 264 267 263 263 270 271 269 268 271 277 280 282 284 283 281 279 276 275 276 278 278 277 276 275 275 277 280 279 276 275 276 277 278 277 274
257 260 259 261 263 263 263 261 266 267 261 261 263 260 260 261 261 263 266 271 272 270 270 276 279 281 284 283 281 279 274 273 274 276 276 277 276 275 274 277 280 280 279 278 278 279 277 277 276
261 260 262 264 266 267 266 263 260 266 262 260 261 260 258 258 262 266 266 268 271 273 274 275 280 282 283 285 281 278 276 273 273 274 274 275 274 273 275 277 278 278 280 280 280 280 278 275 274
259 259 260 266 266 266 263 259 257 262 263 262 265 262 260 261 263 263 265 268 273 274 277 278 280 284 286 285 282 280 277 274 273 270 271 272 273 275 274 276 277 277 280 282 282 282 280 277 275
258 259 262 265 264 265 263 257 258 258 257 260 265 261 256 259 261 263 266 270 273 275 276 279 279 282 286 285 285 284 281 276 274 272 270 271 275 278 279 277 278 278 280 283 284 285 285 280 276
259 260 261 261 263 263 259 258 259 258 257 256 260 262 260 261 261 262 265 270 273 275 276 280 278 279 282 280 282 284 279 274 272 272 272 275 278 279 281 280 279 278 279 281 283 285 286 284 281
259 259 260 261 262 261 260 260 260 258 258 257 259 261 259 262 264 265 267 269 275 280 281 282 281 279 281 278 280 282 279 276 275 273 273 275 277 279 280 281 279 279 279 283 282 285 285 285 283
258 257 261 261 260 259 262 265 261 258 259 259 259 259 257 262 267 268 270 271 275 279 282 284 284 280 278 277 277 279 279 279 277 272 272 275 279 279 280 278 275 278 280 283 286 284 284 284 284
257 257 260 260 261 261 261 265 262 258 257 258 259 259 258 263 268 268 269 271 275 278 281 282 283 278 275 274 276 276 279 282 283 279 275 275 279 280 279 280 276 276 281 285 288 286 285 285 283
256 257 258 259 259 260 261 262 261 260 260 260 260 259 260 263 267 267 267 269 273 276 279 280 278 275 274 272 271 272 276 281 283 282 280 277 276 278 278 277 275 276 281 286 287 287 288 289 283
258 258 259 259 260 261 262 262 262 263 262 261 261 259 259 263 264 266 265 267 271 274 276 275 273 271 272 272 271 272 274 277 280 280 278 278 278 277 277 278 277 278 282 285 287 288 289 287 287
257 258 259 260 261 259 258 261 261 261 261 260 258 257 259 260 261 265 267 268 268 270 272 272 271 270 269 269 269 272 273 275 277 279 278 277 276 276 279 281 281 283 284 286 286 286 287 287 285
258 259 259 261 262 261 259 261 262 261 264 262 259 259 259 260 260 262 266 268 268 269 268 270 273 269 270 267 267 268 271 274 274 277 277 277 276 276 278 280 282 287 288 287 287 286 287 288 288
258 260 261 261 261 261 263 263 263 264 265 265 261 257 258 260 259 261 265 264 265 267 267 270 271 270 270 269 268 270 271 272 273 276 278 278 278 276 276 279 283 285 287 288 288 288 288 288 288
260 261 261 261 262 263 263 265 265 266 265 265 262 260 259 259 258 261 263 264 264 265 267 269 270 269 271 271 270 271 271 272 273 275 275 277 278 276 277 281 284 284 286 287 288 289 289 289 289
261 263 262 261 262 264 264 266 267 266 266 264 263 261 259 259 259 260 262 264 265 267 268 268 267 270 272 273 271 268 268 269 272 274 275 276 276 276 278 282 283 283 285 287 288 288 288 289 290
258 261 263 262 262 264 264 265 268 267 265 264 263 261 259 259 261 261 263 263 265 266 268 268 271 273 274 272 269 267 266 267 271 274 275 277 278 276 277 280 280 280 282 285 288 287 286 288 289
257 258 260 264 262 264 265 267 269 268 266 264 263 262 262 262 263 262 260 261 262 265 268 272 273 274 274 272 272 270 267 267 270 272 273 276 277 277 275 277 277 277 279 284 288 288 287 288 289
255 256 258 262 265 263 265 267 269 270 268 266 265 264 263 264 263 258 257 260 264 267 269 272 273 273 272 270 271 272 270 270 271 272 272 273 275 275 277 276 275 275 278 282 285 286 288 288 289
256 257 257 261 265 266 264 265 269 269 269 267 266 265 265 265 264 262 261 263 266 267 269 271 272 270 272 270 271 271 272 272 274 276 274 273 274 276 277 279 277 277 278 281 283 285 287 289 289
256 257 259 260 262 264 265 262 267 268 269 266 266 265 264 262 262 261 262 264 267 267 268 271 273 269 269 270 271 272 274 275 274 276 275 275 276 277 279 280 280 279 279 279 281 284 286 286 286
257 260 261 259 260 261 262 261 263 266 267 267 267 265 263 261 261 260 261 263 267 269 270 271 273 272 270 267 270 272 273 277 277 277 278 278 278 279 280 280 282 282 282 282 282 283 284 285 284